Showing default

BUCCANEER MM, 63245

Orbit data source: Space-Track

BUCCANEER MM, 63245 is an Australian payload satellite in SSO that was launched on Sat, 15 Mar 2025 UTC via an FALCON 9 launch vehicle from the Air Force Western Test Range (AFWTR). Payload-class satellites include a variety of spacecraft equipped with specific instruments for various scientific and technological missions. These include communications satellites like Starlink; space stations such as the ISS; scientific satellites like the Hubble; Earth observation satellites from companies like Planet Labs, Umbra, and HawkEye 360; GPS; miniature CubeSats for education and research; and military/defense satellites.

Loading next visibility...
Identifier
63245, 2025-052AM
Orbit
SSO
Country
Flag of AUAU / AUS
Related business
Manufacturer
U. NSW
Mission
Operational Amateur Technology
Bus & Motor
CUBESAT 6U, Unknown motor
Mass
~10 kg wet, ~10 kg dry
Launch date (UTC)
2025-03-15 (9 months ago)
Launch vehicle
FALCON 9
Launch site
Air Force Western Test Range (AFWTR)
Object type
Payload
Rocket body
Debris
Shape & HBR
Box + 2 Ant, 0.2 m
Radar Cross Section
0.160 m², Small (<0.1 m²)

Expand to show TLE details & history
Last TLE update: 7 hours ago

TLE from 7 hours ago
0 BUCCANEER MM
1 63245U 25052AM  25346.98201249  .00006394  00000-0  61528-3 0  9996
2 63245  97.7066 236.7073 0005698 106.0671 254.1177 14.93308353 40790
Epoch: 2025-12-12T23:34Z
TLE epoch observation values (Epoch: 2025-12-12T23:34:05.879Z)
Latitude
0.00004°
Longitude
161.26697°
Altitude
591.762 km
Speed
7.564 km/s
True Right ascension
15h 46m 49s
True Declination
0° 00' 00"
Sunlit
Object was in daylight at epoch
Visualization orbit readout
Latitude
Unknown
Longitude
Unknown
Altitude
Unknown
Speed
Unknown
Apparent Right ascension
Unknown
Apparent Declination
Unknown
Sunlit
N/A
Visualization observer readout
Local Sidereal Time
05:23:58
Azimuth
Unknown
Elevation
Unknown
Doppler factor
Unknown
Orbital elements
Apogee altitude
588.61 km
Perigee altitude
580.676 km
Semi-major axis
6,962.78 km
Eccentricity
0.00057
Inclination
97.7066°
RAAN
236.7073°
Arg. of periapsis
106.0671°
True anomaly
254.05491°
Mean anomaly
254.1177°
Eccentric anomaly
254.0863°
Mean motion
3.73568 °/min
Orbital period
96.37 mins
BSTAR
0.00061528
Loading maneuver chart data...
Computing Atmospheric mass density...
Loading historical data...
Loading historical data...
Loading historical data...
Loading historical data...
Loading historical data...
Loading historical data...
Loading historical data...

Documentation

Showing up to 5 results
|